(°C)
10°
10°
10°
10°
10°
10°
10°
(°C)
ENE
E
E
E
ENE
ENE
ENE
(km/h)
17-22
18-21
18-20
17-20
18-20
18-22
18-22
(mm)
0
0
0
0
0
0
0
(%)
1
1
0
0
0
0
0

Elevația soarelui

/ -20.7°
sun-icon
UV 2
06:21
18:44
Lună plină (187°)
19:15
06:19

METAR pentru 53.5°N 50.15°E (UWWW)

Ora Condiții Temperatură/
Punctul de rouă
Vânt Vizibilitate Vremea Nori Presiune Schimbă Brut
VFR 10°C / 3°C 70º 10kt >10km - Scattered Clouds 3300ft 1018 No Significant change. Runway 15: Damp, 51-100% contamination with <1mm, friction coefficient 0.55. UWWW 211630Z 07005MPS 9999 SCT033 10/03 Q1018 R15/190055 NOSIG RMK QFE752/1002
VFR 10°C / 3°C 70º variable 060º to 120º 10kt >10km - Scattered Clouds 3300ft 1018 No Significant change. Runway 15: Damp, 51-100% contamination with <1mm, friction coefficient 0.55. UWWW 211600Z 07005MPS 060V120 9999 SCT033 10/03 Q1018 R15/190055 NOSIG RMK QFE752/1003
VFR 10°C / 3°C 80º 10kt >10km - Scattered Clouds 3300ft 1018 No Significant change. Runway 15: Damp, 51-100% contamination with <1mm, friction coefficient 0.55. UWWW 211530Z 08005MPS 9999 SCT033 10/03 Q1018 R15/190055 NOSIG RMK QFE752/1003
VFR 10°C / 3°C 70º 12kt >10km Light Rain 1.00mm precipitation Vertical Visibility of 0ft. 1018 No Significant change. Runway 15: Damp, 51-100% contamination with <1mm, friction coefficient 0.55. UWWW 211500Z 07006MPS 9999 -RA SCT033 10/03 Q1018 R15/190055 NOSIG RMK QFE752/1003
VFR 11°C / 3°C 80º 10kt >10km - Scattered Clouds 3300ft 1018 No Significant change. Runway 15: Damp, 51-100% contamination with <1mm, friction coefficient 0.55. UWWW 211430Z 08005MPS 9999 SCT033 11/03 Q1018 R15/190055 NOSIG RMK QFE752/1003
VFR 11°C / 2°C 100º 12kt >10km - Scattered Clouds 3300ft 1018 No Significant change. Runway 15: Damp, 51-100% contamination with <1mm, friction coefficient 0.55. UWWW 211400Z 10006MPS 9999 SCT033 11/02 Q1018 R15/190055 NOSIG RMK QFE752/1003
VFR 11°C / 3°C 90º 12kt >10km - Scattered Clouds 3300ft 1018 No Significant change. Runway 15: deposit not reported, , friction coefficient 0.55. UWWW 211330Z 09006MPS 9999 SCT033 11/03 Q1018 R15/////55 NOSIG RMK QFE752/1003
VFR 11°C / 3°C 90º 10kt >10km Light Rain 1.00mm precipitation Vertical Visibility of 0ft. 1019 No Significant change UWWW 211300Z 09005MPS 9999 -RA SCT033 11/03 Q1019 R15/CLRD60 NOSIG RMK QFE753/1004
VFR 11°C / 2°C 90º 12kt >10km Light Rain 1.00mm precipitation Vertical Visibility of 0ft. 1019 No Significant change UWWW 211230Z 09006MPS 9999 -RA SCT033 11/02 Q1019 R15/CLRD60 NOSIG RMK QFE753/1004
VFR 12°C / 1°C 100º 12kt >10km Light Rain 1.00mm precipitation Vertical Visibility of 0ft. 1019 No Significant change UWWW 211200Z 10006MPS 9999 -RA SCT033 12/01 Q1019 R15/CLRD60 NOSIG RMK QFE753/1004
VFR 12°C / 1°C 90º 12kt >10km - Scattered Clouds 3300ft 1020 No Significant change UWWW 211130Z 09006MPS 9999 SCT033 12/01 Q1020 R15/CLRD60 NOSIG RMK QFE753/1004
VFR 12°C / 1°C 90º 14kt >10km - Scattered Clouds 3300ft 1020 No Significant change UWWW 211100Z 09007MPS 9999 SCT033 12/01 Q1020 R15/CLRD60 NOSIG RMK QFE753/1004
VFR 11°C / 1°C 90º 14kt >10km - Scattered Clouds 3300ft 1020 No Significant change. Runway 15: Damp, 51-100% contamination with <1mm, friction coefficient 0.55. UWWW 211030Z 09007MPS 9999 SCT033 11/01 Q1020 R15/190055 NOSIG RMK QFE753/1005
VFR 10°C / 1°C 80º 14kt >10km - Scattered Clouds 3300ft 1020 No Significant change. Runway 15: Damp, 51-100% contamination with <1mm, friction coefficient 0.55. UWWW 211000Z 08007MPS 9999 SCT033 10/01 Q1020 R15/190055 NOSIG RMK QFE753/1005
VFR 10°C / 1°C 80º 14kt >10km - Scattered Clouds 3300ft 1020 No Significant change. Runway 15: Damp, 51-100% contamination with <1mm, friction coefficient 0.55. UWWW 210930Z 08007MPS 9999 SCT033 10/01 Q1020 R15/190055 NOSIG RMK QFE754/1005
VFR 9°C / 2°C 80º 14kt >10km - Scattered Clouds 3300ft 1020 No Significant change. Runway 15: Damp, 51-100% contamination with <1mm, friction coefficient 0.55. UWWW 210900Z 08007MPS 9999 SCT033 09/02 Q1020 R15/190055 NOSIG RMK QFE754/1005
VFR 8°C / 2°C 70º 10kt >10km - Scattered Clouds 3300ft 1021 No Significant change. Runway 15: Damp, 51-100% contamination with <1mm, friction coefficient 0.55. UWWW 210830Z 07005MPS 9999 SCT033 08/02 Q1021 R15/190055 NOSIG RMK QFE754/1005
VFR 8°C / 2°C 90º variable 070º to 130º 10kt >10km - Scattered Clouds 3300ft 1021 No Significant change. Runway 15: Damp, 51-100% contamination with <1mm, friction coefficient 0.55. UWWW 210800Z 09005MPS 070V130 9999 SCT033 08/02 Q1021 R15/190055 NOSIG RMK QFE754/1005
VFR 8°C / 1°C 90º 10kt >10km Light Rain 1.00mm precipitation Vertical Visibility of 0ft. 1021 No Significant change UWWW 210730Z 09005MPS 9999 -RA SCT033 08/01 Q1021 R15/CLRD60 NOSIG RMK QFE754/1006
VFR 8°C / 0°C 100º 10kt >10km - Scattered Clouds 3300ft 1022 No Significant change UWWW 210700Z 10005MPS 9999 SCT033 08/00 Q1022 R15/CLRD60 NOSIG RMK QFE755/1006
VFR 7°C / -1°C 100º 12kt >10km - Scattered Clouds 3300ft 1021 No Significant change UWWW 210630Z 10006MPS 9999 SCT033 07/M01 Q1021 R15/CLRD60 NOSIG RMK QFE754/1006
VFR 7°C / -1°C 90º 10kt >10km - Scattered Clouds 3300ft 1022 No Significant change UWWW 210600Z 09005MPS 9999 SCT033 07/M01 Q1022 R15/CLRD60 NOSIG RMK QFE754/1006
VFR 7°C / -1°C 90º 12kt >10km - Scattered Clouds 3300ft 1022 No Significant change UWWW 210530Z 09006MPS 9999 SCT033 07/M01 Q1022 R15/CLRD60 NOSIG RMK QFE755/1006
VFR 6°C / -1°C 90º 10kt >10km - Scattered Clouds 3300ft 1022 No Significant change UWWW 210500Z 09005MPS 9999 SCT033 06/M01 Q1022 R15/CLRD60 NOSIG RMK QFE755/1007

VFR

10°C / 3°C

[Mai mult]
Vânt 70º 10kt
Vizibilitate >10km
Vremea -
Nori Scattered Clouds 3300ft
Presiune 1018
Schimbă No Significant change. Runway 15: Damp, 51-100% contamination with <1mm, friction coefficient 0.55.
Brut UWWW 211630Z 07005MPS 9999 SCT033 10/03 Q1018 R15/190055 NOSIG RMK QFE752/1002

VFR

10°C / 3°C

[Mai mult]
Vânt 70º variable 060º to 120º 10kt
Vizibilitate >10km
Vremea -
Nori Scattered Clouds 3300ft
Presiune 1018
Schimbă No Significant change. Runway 15: Damp, 51-100% contamination with <1mm, friction coefficient 0.55.
Brut UWWW 211600Z 07005MPS 060V120 9999 SCT033 10/03 Q1018 R15/190055 NOSIG RMK QFE752/1003

VFR

10°C / 3°C

[Mai mult]
Vânt 80º 10kt
Vizibilitate >10km
Vremea -
Nori Scattered Clouds 3300ft
Presiune 1018
Schimbă No Significant change. Runway 15: Damp, 51-100% contamination with <1mm, friction coefficient 0.55.
Brut UWWW 211530Z 08005MPS 9999 SCT033 10/03 Q1018 R15/190055 NOSIG RMK QFE752/1003

VFR

10°C / 3°C

[Mai mult]
Vânt 70º 12kt
Vizibilitate >10km
Vremea Light Rain 1.00mm precipitation
Nori Vertical Visibility of 0ft.
Presiune 1018
Schimbă No Significant change. Runway 15: Damp, 51-100% contamination with <1mm, friction coefficient 0.55.
Brut UWWW 211500Z 07006MPS 9999 -RA SCT033 10/03 Q1018 R15/190055 NOSIG RMK QFE752/1003

VFR

11°C / 3°C

[Mai mult]
Vânt 80º 10kt
Vizibilitate >10km
Vremea -
Nori Scattered Clouds 3300ft
Presiune 1018
Schimbă No Significant change. Runway 15: Damp, 51-100% contamination with <1mm, friction coefficient 0.55.
Brut UWWW 211430Z 08005MPS 9999 SCT033 11/03 Q1018 R15/190055 NOSIG RMK QFE752/1003

VFR

11°C / 2°C

[Mai mult]
Vânt 100º 12kt
Vizibilitate >10km
Vremea -
Nori Scattered Clouds 3300ft
Presiune 1018
Schimbă No Significant change. Runway 15: Damp, 51-100% contamination with <1mm, friction coefficient 0.55.
Brut UWWW 211400Z 10006MPS 9999 SCT033 11/02 Q1018 R15/190055 NOSIG RMK QFE752/1003

VFR

11°C / 3°C

[Mai mult]
Vânt 90º 12kt
Vizibilitate >10km
Vremea -
Nori Scattered Clouds 3300ft
Presiune 1018
Schimbă No Significant change. Runway 15: deposit not reported, , friction coefficient 0.55.
Brut UWWW 211330Z 09006MPS 9999 SCT033 11/03 Q1018 R15/////55 NOSIG RMK QFE752/1003

VFR

11°C / 3°C

[Mai mult]
Vânt 90º 10kt
Vizibilitate >10km
Vremea Light Rain 1.00mm precipitation
Nori Vertical Visibility of 0ft.
Presiune 1019
Schimbă No Significant change
Brut UWWW 211300Z 09005MPS 9999 -RA SCT033 11/03 Q1019 R15/CLRD60 NOSIG RMK QFE753/1004

VFR

11°C / 2°C

[Mai mult]
Vânt 90º 12kt
Vizibilitate >10km
Vremea Light Rain 1.00mm precipitation
Nori Vertical Visibility of 0ft.
Presiune 1019
Schimbă No Significant change
Brut UWWW 211230Z 09006MPS 9999 -RA SCT033 11/02 Q1019 R15/CLRD60 NOSIG RMK QFE753/1004

VFR

12°C / 1°C

[Mai mult]
Vânt 100º 12kt
Vizibilitate >10km
Vremea Light Rain 1.00mm precipitation
Nori Vertical Visibility of 0ft.
Presiune 1019
Schimbă No Significant change
Brut UWWW 211200Z 10006MPS 9999 -RA SCT033 12/01 Q1019 R15/CLRD60 NOSIG RMK QFE753/1004

VFR

12°C / 1°C

[Mai mult]
Vânt 90º 12kt
Vizibilitate >10km
Vremea -
Nori Scattered Clouds 3300ft
Presiune 1020
Schimbă No Significant change
Brut UWWW 211130Z 09006MPS 9999 SCT033 12/01 Q1020 R15/CLRD60 NOSIG RMK QFE753/1004

VFR

12°C / 1°C

[Mai mult]
Vânt 90º 14kt
Vizibilitate >10km
Vremea -
Nori Scattered Clouds 3300ft
Presiune 1020
Schimbă No Significant change
Brut UWWW 211100Z 09007MPS 9999 SCT033 12/01 Q1020 R15/CLRD60 NOSIG RMK QFE753/1004

VFR

11°C / 1°C

[Mai mult]
Vânt 90º 14kt
Vizibilitate >10km
Vremea -
Nori Scattered Clouds 3300ft
Presiune 1020
Schimbă No Significant change. Runway 15: Damp, 51-100% contamination with <1mm, friction coefficient 0.55.
Brut UWWW 211030Z 09007MPS 9999 SCT033 11/01 Q1020 R15/190055 NOSIG RMK QFE753/1005

VFR

10°C / 1°C

[Mai mult]
Vânt 80º 14kt
Vizibilitate >10km
Vremea -
Nori Scattered Clouds 3300ft
Presiune 1020
Schimbă No Significant change. Runway 15: Damp, 51-100% contamination with <1mm, friction coefficient 0.55.
Brut UWWW 211000Z 08007MPS 9999 SCT033 10/01 Q1020 R15/190055 NOSIG RMK QFE753/1005

VFR

10°C / 1°C

[Mai mult]
Vânt 80º 14kt
Vizibilitate >10km
Vremea -
Nori Scattered Clouds 3300ft
Presiune 1020
Schimbă No Significant change. Runway 15: Damp, 51-100% contamination with <1mm, friction coefficient 0.55.
Brut UWWW 210930Z 08007MPS 9999 SCT033 10/01 Q1020 R15/190055 NOSIG RMK QFE754/1005

VFR

9°C / 2°C

[Mai mult]
Vânt 80º 14kt
Vizibilitate >10km
Vremea -
Nori Scattered Clouds 3300ft
Presiune 1020
Schimbă No Significant change. Runway 15: Damp, 51-100% contamination with <1mm, friction coefficient 0.55.
Brut UWWW 210900Z 08007MPS 9999 SCT033 09/02 Q1020 R15/190055 NOSIG RMK QFE754/1005

VFR

8°C / 2°C

[Mai mult]
Vânt 70º 10kt
Vizibilitate >10km
Vremea -
Nori Scattered Clouds 3300ft
Presiune 1021
Schimbă No Significant change. Runway 15: Damp, 51-100% contamination with <1mm, friction coefficient 0.55.
Brut UWWW 210830Z 07005MPS 9999 SCT033 08/02 Q1021 R15/190055 NOSIG RMK QFE754/1005

VFR

8°C / 2°C

[Mai mult]
Vânt 90º variable 070º to 130º 10kt
Vizibilitate >10km
Vremea -
Nori Scattered Clouds 3300ft
Presiune 1021
Schimbă No Significant change. Runway 15: Damp, 51-100% contamination with <1mm, friction coefficient 0.55.
Brut UWWW 210800Z 09005MPS 070V130 9999 SCT033 08/02 Q1021 R15/190055 NOSIG RMK QFE754/1005

VFR

8°C / 1°C

[Mai mult]
Vânt 90º 10kt
Vizibilitate >10km
Vremea Light Rain 1.00mm precipitation
Nori Vertical Visibility of 0ft.
Presiune 1021
Schimbă No Significant change
Brut UWWW 210730Z 09005MPS 9999 -RA SCT033 08/01 Q1021 R15/CLRD60 NOSIG RMK QFE754/1006

VFR

8°C / 0°C

[Mai mult]
Vânt 100º 10kt
Vizibilitate >10km
Vremea -
Nori Scattered Clouds 3300ft
Presiune 1022
Schimbă No Significant change
Brut UWWW 210700Z 10005MPS 9999 SCT033 08/00 Q1022 R15/CLRD60 NOSIG RMK QFE755/1006

VFR

7°C / -1°C

[Mai mult]
Vânt 100º 12kt
Vizibilitate >10km
Vremea -
Nori Scattered Clouds 3300ft
Presiune 1021
Schimbă No Significant change
Brut UWWW 210630Z 10006MPS 9999 SCT033 07/M01 Q1021 R15/CLRD60 NOSIG RMK QFE754/1006

VFR

7°C / -1°C

[Mai mult]
Vânt 90º 10kt
Vizibilitate >10km
Vremea -
Nori Scattered Clouds 3300ft
Presiune 1022
Schimbă No Significant change
Brut UWWW 210600Z 09005MPS 9999 SCT033 07/M01 Q1022 R15/CLRD60 NOSIG RMK QFE754/1006

VFR

7°C / -1°C

[Mai mult]
Vânt 90º 12kt
Vizibilitate >10km
Vremea -
Nori Scattered Clouds 3300ft
Presiune 1022
Schimbă No Significant change
Brut UWWW 210530Z 09006MPS 9999 SCT033 07/M01 Q1022 R15/CLRD60 NOSIG RMK QFE755/1006

VFR

6°C / -1°C

[Mai mult]
Vânt 90º 10kt
Vizibilitate >10km
Vremea -
Nori Scattered Clouds 3300ft
Presiune 1022
Schimbă No Significant change
Brut UWWW 210500Z 09005MPS 9999 SCT033 06/M01 Q1022 R15/CLRD60 NOSIG RMK QFE755/1007

TAF pentru 53.5°N 50.15°E (UWWW)

From till


Maximum Temperature 16ºC on . Minimum Temperature 8ºC on .
From till Wind 110º 12kt. Visibility 10km or more. Broken Clouds 2000ft.
Temporarly from till Wind 70º 14kt. Gust 25kt. Visibility 3000m. Light Rain Mist . Broken Clouds 1600ft.
Temporarly from till Wind 150º 17kt. Gust 31kt. Visibility 3000m. Light Showers Rain . Broken Clouds 1600ft.

Brut: TAF UWWW 211357Z 2115/2215 11006MPS 9999 BKN020 TX16/2210Z TN08/2202Z TEMPO 2115/2204 07007G13MPS 3000 -RA BR BKN016 TEMPO 2204/2215 15009G16MPS 3000 -SHRA BKN016CB

Imagini satelitare și ploaie pentru 53.5°N 50.15°E

Markerul cu locaţia este poziţionat pe 53.5°N 50.15°E. [Mai mult]

Imaginea satelitară în timp real combină lumina vizibilă din timpul zilei cu radiația cu infraroșu din timpul nopții. Pe timp de noapte, imaginea nu este întunecată, deoarece radiația cu infraroșu poate detecta diferențele de temperatură. Din păcate, norii joși și ceața sunt greu de recunoscut față de temperatura de la sol, din această cauză putând fi invizibili pe timp de noapte. Imaginile satelitare Meteosat pentru Europa sunt actualizate în timp real din 5 în 5 minute. Imaginile GOES-16/GOES-17 (America de Nord și de Sud) și Himawari (Asia) sunt actualizate din 10 în 10 minute.

Toate drepturile rezervate 2021 EUMETSAT / meteoblue. / Toate drepturile rezervate 2021 meteoblue

Radar și nowcast de precipitații pentru 53.5°N 50.15°E

Burniță
Ușoară
Moderat
Greu
Foarte greu
Grindină

Markerul de locație este plasat în 53.5°N 50.15°E. Această animație arată radarul de precipitații pentru ultima oră, precum și o 1h prognoză. Ploaia sau ninsoarea slabă ar putea fi invizibilă pentru radar. Intensitatea precipitațiilor este codificată prin culori, de la albastru deschis la portocaliu.